| time (UTC) | temp F | wind direction | speed knots | gust knots | rain 1hr in | rain 24hr in | rain mn in | humidity % | barometer mb |
| 20260507070041 | 61 | 224 | 1.7 | 5.2 | 0.00 | 0.00 | 0.00 | 77 | 1015.6 |
| 20260507064941 | 61 | 238 | 5.2 | 6.1 | 0.00 | 0.00 | 0.00 | 76 | 1015.7 |
| 20260507063842 | 61 | 212 | 0.9 | 6.1 | 0.00 | 0.00 | 0.00 | 76 | 1015.7 |
| 20260507062741 | 61 | 198 | 0.9 | 7.0 | 0.00 | 0.00 | 0.00 | 76 | 1015.4 |
| 20260507061641 | 61 | 217 | 2.6 | 7.8 | 0.00 | 0.00 | 0.00 | 76 | 1015.4 |
| 20260507060541 | 62 | 211 | 4.3 | 5.2 | 0.00 | 0.00 | 0.00 | 75 | 1015.5 |
| 20260507055441 | 62 | 190 | 0.0 | 3.5 | 0.00 | 0.00 | 0.00 | 75 | 1015.5 |
| 20260507054341 | 62 | 227 | 0.0 | 7.0 | 0.00 | 0.00 | 0.00 | 75 | 1015.5 |
| 20260507053241 | 62 | 215 | 0.0 | 5.2 | 0.00 | 0.00 | 0.00 | 75 | 1015.5 |
| 20260507052141 | 62 | 153 | 1.7 | 3.5 | 0.00 | 0.00 | 0.00 | 77 | 1015.3 |
| 20260507051041 | 61 | 152 | 0.9 | 3.5 | 0.00 | 0.00 | 0.00 | 76 | 1015.2 |
| 20260507045941 | 61 | 155 | 1.7 | 4.3 | 0.00 | 0.00 | 0.00 | 75 | 1015.1 |
| 20260507044841 | 60 | 170 | 0.0 | 0.9 | 0.00 | 0.00 | 0.00 | 76 | 1015.0 |
| 20260507043741 | 61 | 213 | 0.0 | 1.7 | 0.00 | 0.00 | 0.00 | 77 | 1015.1 |
| 20260507042641 | 61 | 267 | 1.7 | 3.5 | 0.00 | 0.00 | 0.00 | 75 | 1015.0 |
| 20260507041541 | 61 | 224 | 1.7 | 2.6 | 0.00 | 0.00 | 0.00 | 75 | 1014.8 |
| 20260507040441 | 61 | 232 | 2.6 | 4.3 | 0.00 | 0.00 | 0.00 | 75 | 1014.7 |
| 20260507035341 | 61 | 232 | 0.9 | 3.5 | 0.00 | 0.00 | 0.00 | 76 | 1014.6 |
| 20260507035043 | 61 | 138 | 0.0 | 1.7 | 0.00 | 0.00 | 0.00 | 76 | 1014.5 |
| 20260507034241 | 61 | 138 | 0.9 | 3.5 | 0.00 | 0.00 | 0.00 | 76 | 1014.4 |
| 20260507033141 | 61 | 156 | 0.0 | 2.6 | 0.00 | 0.00 | 0.00 | 78 | 1014.3 |
| 20260507032041 | 61 | 223 | 0.0 | 0.9 | 0.00 | 0.00 | 0.00 | 79 | 1014.3 |
| 20260507031046 | 61 | 223 | 0.0 | 0.9 | 0.00 | 0.00 | 0.00 | 79 | 1014.2 |
| 20260507030941 | 61 | 223 | 0.0 | 0.9 | 0.00 | 0.00 | 0.00 | 79 | 1014.2 |
| 20260507025841 | 61 | 223 | 0.0 | 0.9 | 0.00 | 0.00 | 0.00 | 79 | 1014.1 |
| 20260507024741 | 61 | 223 | 0.0 | 2.6 | 0.00 | 0.00 | 0.00 | 79 | 1014.0 |
| 20260507023641 | 61 | 229 | 0.9 | 1.7 | 0.00 | 0.00 | 0.00 | 79 | 1014.0 |
| 20260507022541 | 61 | 240 | 0.0 | 0.0 | 0.00 | 0.00 | 0.00 | 79 | 1013.9 |
| 20260507022042 | 61 | 240 | 0.0 | 0.9 | 0.00 | 0.00 | 0.00 | 79 | 1013.7 |
| 20260507021441 | 61 | 240 | 0.0 | 2.6 | 0.00 | 0.00 | 0.00 | 79 | 1013.7 |
| 20260507021042 | 62 | 240 | 0.9 | 3.5 | 0.00 | 0.00 | 0.00 | 79 | 1013.7 |
| 20260507020341 | 62 | 249 | 1.7 | 3.5 | 0.00 | 0.00 | 0.00 | 79 | 1013.8 |
| 20260507020042 | 62 | 245 | 1.7 | 3.5 | 0.00 | 0.00 | 0.00 | 79 | 1013.7 |
| 20260507015241 | 62 | 260 | 1.7 | 2.6 | 0.00 | 0.00 | 0.00 | 79 | 1013.6 |
| 20260507015042 | 61 | 242 | 1.7 | 1.7 | 0.00 | 0.00 | 0.00 | 79 | 1013.6 |
| 20260507014141 | 61 | 281 | 0.0 | 1.7 | 0.00 | 0.00 | 0.00 | 78 | 1013.5 |
| 20260507014042 | 61 | 281 | 0.0 | 1.7 | 0.00 | 0.00 | 0.00 | 78 | 1013.5 |
| 20260507013053 | 61 | 286 | 0.9 | 1.7 | 0.00 | 0.00 | 0.00 | 78 | 1013.5 |
| 20260507012040 | 61 | 290 | 0.9 | 2.6 | 0.00 | 0.00 | 0.00 | 78 | 1013.3 |
| 20260507011042 | 61 | 296 | 0.0 | 0.9 | 0.00 | 0.00 | 0.00 | 77 | 1013.2 |
| 20260507010940 | 61 | 296 | 0.0 | 0.9 | 0.00 | 0.00 | 0.00 | 77 | 1013.4 |
| 20260507010041 | 62 | 296 | 0.0 | 0.9 | 0.00 | 0.00 | 0.00 | 76 | 1013.3 |
| 20260507005840 | 62 | 289 | 0.9 | 0.9 | 0.00 | 0.00 | 0.00 | 76 | 1013.2 |
| 20260507005041 | 62 | 252 | 0.0 | 2.6 | 0.00 | 0.00 | 0.00 | 75 | 1013.2 |
| 20260507004740 | 62 | 252 | 0.0 | 2.6 | 0.00 | 0.00 | 0.00 | 75 | 1013.2 |
| 20260507004041 | 62 | 275 | 1.7 | 1.7 | 0.00 | 0.00 | 0.00 | 74 | 1013.2 |
| 20260507003640 | 63 | 300 | 0.9 | 1.7 | 0.00 | 0.00 | 0.00 | 73 | 1013.2 |
| 20260507003043 | 63 | 285 | 0.0 | 1.7 | 0.00 | 0.00 | 0.00 | 73 | 1013.2 |
| 20260507002541 | 63 | 294 | 0.0 | 1.7 | 0.00 | 0.00 | 0.00 | 72 | 1013.3 |
| 20260507002042 | 63 | 294 | 0.9 | 3.5 | 0.00 | 0.00 | 0.00 | 71 | 1013.2 |
| 20260507001441 | 64 | 286 | 0.0 | 3.5 | 0.00 | 0.00 | 0.00 | 71 | 1013.1 |
| 20260507001042 | 64 | 267 | 0.9 | 2.6 | 0.00 | 0.00 | 0.00 | 70 | 1013.3 |
| 20260507000343 | 64 | 289 | 1.7 | 3.5 | 0.00 | 0.00 | 0.00 | 69 | 1013.3 |
| 20260507000043 | 64 | 261 | 1.7 | 3.5 | 0.00 | 0.00 | 0.00 | 69 | 1013.4 |
| 20260506235241 | 65 | 259 | 0.9 | 4.3 | 0.00 | 0.00 | 0.00 | 68 | 1013.2 |
| 20260506235042 | 65 | 297 | 2.6 | 4.3 | 0.00 | 0.00 | 0.00 | 67 | 1013.2 |
| 20260506234141 | 66 | 253 | 2.6 | 4.3 | 0.00 | 0.00 | 0.00 | 66 | 1013.1 |
| 20260506234042 | 65 | 243 | 3.5 | 4.3 | 0.00 | 0.00 | 0.00 | 66 | 1013.2 |
| 20260506233041 | 66 | 256 | 4.3 | 7.8 | 0.00 | 0.00 | 0.00 | 66 | 1013.2 |
| 20260506232045 | 66 | 255 | 3.5 | 7.0 | 0.00 | 0.00 | 0.00 | 65 | 1013.2 |
| 20260506231941 | 66 | 253 | 4.3 | 6.1 | 0.00 | 0.00 | 0.00 | 65 | 1013.2 |
| 20260506231042 | 66 | 296 | 4.3 | 7.8 | 0.00 | 0.00 | 0.00 | 64 | 1013.2 |
| 20260506230841 | 66 | 288 | 3.5 | 7.8 | 0.00 | 0.00 | 0.00 | 63 | 1013.1 |
| 20260506230042 | 66 | 305 | 3.5 | 6.1 | 0.00 | 0.00 | 0.00 | 62 | 1013.0 |
| 20260506225741 | 66 | 252 | 1.7 | 6.1 | 0.00 | 0.00 | 0.00 | 62 | 1013.0 |
| 20260506225043 | 67 | 266 | 2.6 | 7.8 | 0.00 | 0.00 | 0.00 | 61 | 1013.0 |
| 20260506224641 | 67 | 265 | 3.5 | 7.8 | 0.00 | 0.00 | 0.00 | 61 | 1012.9 |
| 20260506224043 | 67 | 252 | 2.6 | 8.7 | 0.00 | 0.00 | 0.00 | 61 | 1012.8 |
| 20260506223541 | 67 | 259 | 5.2 | 8.7 | 0.00 | 0.00 | 0.00 | 61 | 1012.7 |
| 20260506223042 | 67 | 261 | 5.2 | 7.0 | 0.00 | 0.00 | 0.00 | 60 | 1012.4 |
| 20260506222441 | 67 | 242 | 2.6 | 6.1 | 0.00 | 0.00 | 0.00 | 60 | 1012.4 |
| 20260506222051 | 67 | 225 | 3.5 | 6.1 | 0.00 | 0.00 | 0.00 | 60 | 1012.4 |
| 20260506221340 | 67 | 213 | 3.5 | 4.3 | 0.00 | 0.00 | 0.00 | 61 | 1012.3 |
| 20260506221042 | 67 | 210 | 1.7 | 3.5 | 0.00 | 0.00 | 0.00 | 60 | 1012.3 |
| 20260506220241 | 67 | 212 | 1.7 | 4.3 | 0.00 | 0.00 | 0.00 | 60 | 1012.3 |
| 20260506220041 | 67 | 209 | 2.6 | 4.3 | 0.00 | 0.00 | 0.00 | 60 | 1012.3 |
| 20260506215141 | 67 | 221 | 2.6 | 4.3 | 0.00 | 0.00 | 0.00 | 60 | 1012.2 |
| 20260506215044 | 67 | 233 | 3.5 | 4.3 | 0.00 | 0.00 | 0.00 | 60 | 1012.2 |
| 20260506214040 | 67 | 234 | 3.5 | 3.5 | 0.00 | 0.00 | 0.00 | 59 | 1012.1 |
| 20260506213042 | 68 | 267 | 1.7 | 3.5 | 0.00 | 0.00 | 0.00 | 59 | 1012.1 |
| 20260506212940 | 68 | 253 | 1.7 | 3.5 | 0.00 | 0.00 | 0.00 | 59 | 1012.1 |
| 20260506212042 | 68 | 230 | 2.6 | 4.3 | 0.00 | 0.00 | 0.00 | 59 | 1012.0 |
| 20260506211840 | 68 | 232 | 3.5 | 4.3 | 0.00 | 0.00 | 0.00 | 59 | 1012.1 |
| 20260506211042 | 68 | 225 | 1.7 | 4.3 | 0.00 | 0.00 | 0.00 | 58 | 1012.0 |
| 20260506210740 | 68 | 221 | 2.6 | 4.3 | 0.00 | 0.00 | 0.00 | 58 | 1012.0 |
| 20260506210042 | 68 | 259 | 1.7 | 4.3 | 0.00 | 0.00 | 0.00 | 57 | 1012.0 |
| 20260506205640 | 68 | 245 | 2.6 | 4.3 | 0.00 | 0.00 | 0.00 | 57 | 1012.0 |
| 20260506205049 | 69 | 241 | 1.7 | 3.5 | 0.00 | 0.00 | 0.00 | 57 | 1011.9 |
| 20260506204540 | 69 | 217 | 1.7 | 3.5 | 0.00 | 0.00 | 0.00 | 57 | 1011.8 |
| 20260506204041 | 69 | 203 | 0.0 | 3.5 | 0.00 | 0.00 | 0.00 | 57 | 1011.8 |
| 20260506203440 | 69 | 193 | 0.0 | 3.5 | 0.00 | 0.00 | 0.00 | 57 | 1011.7 |
| 20260506203042 | 69 | 216 | 0.9 | 3.5 | 0.00 | 0.00 | 0.00 | 57 | 1011.7 |
| 20260506202340 | 69 | 196 | 0.0 | 2.6 | 0.00 | 0.00 | 0.00 | 57 | 1011.7 |
| 20260506202042 | 69 | 196 | 0.0 | 2.6 | 0.00 | 0.00 | 0.00 | 57 | 1011.6 |
| 20260506201240 | 69 | 180 | 0.0 | 4.3 | 0.00 | 0.00 | 0.00 | 57 | 1011.7 |
| 20260506201041 | 69 | 158 | 0.0 | 4.3 | 0.00 | 0.00 | 0.00 | 57 | 1011.7 |
| 20260506200140 | 69 | 133 | 1.7 | 7.0 | 0.00 | 0.00 | 0.00 | 57 | 1011.5 |
| 20260506200041 | 69 | 161 | 3.5 | 7.0 | 0.00 | 0.00 | 0.00 | 57 | 1011.5 |
| 20260506195040 | 69 | 136 | 6.1 | 7.0 | 0.00 | 0.00 | 0.00 | 56 | 1011.3 |
| 20260506194042 | 69 | 133 | 6.1 | 7.0 | 0.00 | 0.00 | 0.00 | 56 | 1011.3 |
| 20260506193940 | 69 | 137 | 3.5 | 6.1 | 0.00 | 0.00 | 0.00 | 57 | 1011.2 |
| 20260506193041 | 69 | 164 | 4.3 | 4.3 | 0.00 | 0.00 | 0.00 | 57 | 1011.3 |
| 20260506192840 | 69 | 217 | 0.0 | 4.3 | 0.00 | 0.00 | 0.00 | 57 | 1011.4 |
| 20260506192048 | 70 | 200 | 0.0 | 6.1 | 0.00 | 0.00 | 0.00 | 56 | 1011.2 |
| 20260506191740 | 71 | 252 | 3.5 | 7.0 | 0.00 | 0.00 | 0.00 | 56 | 1011.1 |
| 20260506191041 | 71 | 140 | 6.1 | 7.8 | 0.00 | 0.00 | 0.00 | 53 | 1010.9 |
| 20260506190640 | 71 | 141 | 6.1 | 7.8 | 0.00 | 0.00 | 0.00 | 53 | 1010.9 |
| 20260506190041 | 72 | 148 | 3.5 | 8.7 | 0.00 | 0.00 | 0.00 | 53 | 1010.9 |
| 20260506185540 | 72 | 119 | 1.7 | 8.7 | 0.00 | 0.00 | 0.00 | 53 | 1010.9 |
| 20260506185044 | 71 | 132 | 1.7 | 7.8 | 0.00 | 0.00 | 0.00 | 53 | 1010.9 |
| 20260506184440 | 72 | 134 | 2.6 | 5.2 | 0.00 | 0.00 | 0.00 | 54 | 1010.7 |
| 20260506184041 | 72 | 114 | 1.7 | 3.5 | 0.00 | 0.00 | 0.00 | 54 | 1010.8 |
| 20260506183340 | 72 | 109 | 1.7 | 5.2 | 0.00 | 0.00 | 0.00 | 54 | 1010.7 |
| 20260506183041 | 72 | 96 | 2.6 | 5.2 | 0.00 | 0.00 | 0.00 | 54 | 1010.6 |
| 20260506182240 | 72 | 99 | 2.6 | 5.2 | 0.00 | 0.00 | 0.00 | 53 | 1010.7 |
| 20260506182042 | 72 | 89 | 2.6 | 5.2 | 0.00 | 0.00 | 0.00 | 53 | 1010.7 |
| 20260506181140 | 73 | 94 | 3.5 | 5.2 | 0.00 | 0.00 | 0.00 | 53 | 1010.6 |
| 20260506181041 | 73 | 97 | 1.7 | 5.2 | 0.00 | 0.00 | 0.00 | 53 | 1010.6 |
| 20260506180040 | 73 | 97 | 1.7 | 5.2 | 0.00 | 0.00 | 0.00 | 53 | 1010.7 |
| 20260506175042 | 74 | 115 | 2.6 | 4.3 | 0.00 | 0.00 | 0.00 | 52 | 1010.6 |
| 20260506174940 | 74 | 98 | 0.9 | 4.3 | 0.00 | 0.00 | 0.00 | 52 | 1010.6 |
| 20260506174041 | 74 | 103 | 1.7 | 2.6 | 0.00 | 0.00 | 0.00 | 52 | 1010.4 |
| 20260506173840 | 74 | 105 | 1.7 | 5.2 | 0.00 | 0.00 | 0.00 | 52 | 1010.3 |
| 20260506173041 | 74 | 92 | 5.2 | 5.2 | 0.00 | 0.00 | 0.00 | 51 | 1010.3 |
| 20260506172740 | 75 | 100 | 1.7 | 3.5 | 0.00 | 0.00 | 0.00 | 51 | 1010.4 |
| 20260506172042 | 75 | 100 | 2.6 | 3.5 | 0.00 | 0.00 | 0.00 | 50 | 1010.4 |
| 20260506171640 | 75 | 101 | 1.7 | 3.5 | 0.00 | 0.00 | 0.00 | 50 | 1010.5 |
| 20260506171041 | 76 | 98 | 1.7 | 3.5 | 0.00 | 0.00 | 0.00 | 49 | 1010.5 |
| 20260506170540 | 76 | 92 | 1.7 | 3.5 | 0.00 | 0.00 | 0.00 | 49 | 1010.6 |
| 20260506170041 | 76 | 99 | 1.7 | 3.5 | 0.00 | 0.00 | 0.00 | 49 | 1010.6 |
| 20260506165440 | 77 | 93 | 0.9 | 2.6 | 0.00 | 0.00 | 0.00 | 48 | 1010.6 |
| 20260506165043 | 77 | 82 | 0.9 | 2.6 | 0.00 | 0.00 | 0.00 | 48 | 1010.5 |
| 20260506164340 | 77 | 95 | 0.9 | 2.6 | 0.00 | 0.00 | 0.00 | 47 | 1010.6 |
| 20260506164041 | 78 | 95 | 0.9 | 2.6 | 0.00 | 0.00 | 0.00 | 47 | 1010.5 |
| 20260506163240 | 78 | 96 | 1.7 | 2.6 | 0.00 | 0.00 | 0.00 | 46 | 1010.6 |
| 20260506163042 | 78 | 110 | 0.9 | 5.2 | 0.00 | 0.00 | 0.00 | 46 | 1010.6 |
| 20260506162140 | 78 | 135 | 0.9 | 3.5 | 0.00 | 0.00 | 0.00 | 46 | 1010.6 |
| 20260506162041 | 78 | 115 | 1.7 | 7.8 | 0.00 | 0.00 | 0.00 | 47 | 1010.6 |
| 20260506161040 | 78 | 113 | 1.7 | 5.2 | 0.00 | 0.00 | 0.00 | 47 | 1010.6 |
| 20260506160042 | 79 | 138 | 0.9 | 10.4 | 0.00 | 0.00 | 0.00 | 46 | 1010.7 |
| 20260506155940 | 79 | 96 | 0.9 | 10.4 | 0.00 | 0.00 | 0.00 | 45 | 1010.8 |
| 20260506155043 | 79 | 107 | 2.6 | 6.1 | 0.00 | 0.00 | 0.00 | 45 | 1010.7 |
| 20260506154840 | 79 | 134 | 1.7 | 6.1 | 0.00 | 0.00 | 0.00 | 44 | 1010.7 |
| 20260506154041 | 79 | 98 | 0.9 | 5.2 | 0.00 | 0.00 | 0.00 | 44 | 1010.7 |
| 20260506153740 | 79 | 122 | 0.9 | 5.2 | 0.00 | 0.00 | 0.00 | 45 | 1010.8 |
| 20260506153041 | 80 | 85 | 1.7 | 6.1 | 0.00 | 0.00 | 0.00 | 43 | 1010.9 |
| 20260506152640 | 80 | 92 | 2.6 | 5.2 | 0.00 | 0.00 | 0.00 | 43 | 1010.9 |
| 20260506152042 | 80 | 126 | 2.6 | 9.6 | 0.00 | 0.00 | 0.00 | 44 | 1011.0 |
| 20260506151540 | 80 | 92 | 3.5 | 9.6 | 0.00 | 0.00 | 0.00 | 43 | 1011.0 |
| 20260506151041 | 80 | 91 | 5.2 | 5.2 | 0.00 | 0.00 | 0.00 | 44 | 1011.0 |
| 20260506150440 | 80 | 84 | 1.7 | 6.1 | 0.00 | 0.00 | 0.00 | 44 | 1011.1 |
| 20260506150042 | 80 | 86 | 3.5 | 6.1 | 0.00 | 0.00 | 0.00 | 43 | 1011.0 |
| 20260506145341 | 80 | 180 | 0.9 | 9.6 | 0.00 | 0.00 | 0.00 | 42 | 1011.1 |
| 20260506145042 | 80 | 140 | 3.5 | 9.6 | 0.00 | 0.00 | 0.00 | 42 | 1011.2 |
| 20260506144241 | 81 | 127 | 0.0 | 2.6 | 0.00 | 0.00 | 0.00 | 43 | 1011.2 |
| 20260506144042 | 81 | 171 | 0.0 | 2.6 | 0.00 | 0.00 | 0.00 | 43 | 1011.1 |
| 20260506143141 | 80 | 234 | 0.9 | 6.1 | 0.00 | 0.00 | 0.00 | 43 | 1011.2 |
| 20260506143043 | 80 | 224 | 0.9 | 6.1 | 0.00 | 0.00 | 0.00 | 43 | 1011.2 |
| 20260506142041 | 81 | 97 | 0.9 | 7.8 | 0.00 | 0.00 | 0.00 | 42 | 1011.2 |
| 20260506141042 | 80 | 93 | 0.9 | 6.1 | 0.00 | 0.00 | 0.00 | 44 | 1011.3 |
| 20260506140941 | 80 | 129 | 3.5 | 6.1 | 0.00 | 0.00 | 0.00 | 42 | 1011.3 |
| 20260506140042 | 80 | 113 | 0.0 | 6.1 | 0.00 | 0.00 | 0.00 | 41 | 1011.4 |
| 20260506135841 | 80 | 157 | 1.7 | 10.4 | 0.00 | 0.00 | 0.00 | 41 | 1011.4 |
| 20260506135042 | 80 | 123 | 7.8 | 8.7 | 0.00 | 0.00 | 0.00 | 44 | 1011.4 |
| 20260506134741 | 81 | 121 | 3.5 | 8.7 | 0.00 | 0.00 | 0.00 | 42 | 1011.5 |
| 20260506134042 | 81 | 71 | 4.3 | 7.0 | 0.00 | 0.00 | 0.00 | 44 | 1011.6 |
| 20260506133641 | 81 | 169 | 3.5 | 7.8 | 0.00 | 0.00 | 0.00 | 42 | 1011.7 |
| 20260506133042 | 81 | 84 | 7.0 | 7.8 | 0.00 | 0.00 | 0.00 | 42 | 1011.8 |
| 20260506132541 | 82 | 79 | 4.3 | 7.8 | 0.00 | 0.00 | 0.00 | 42 | 1011.8 |
| 20260506132042 | 82 | 128 | 3.5 | 4.3 | 0.00 | 0.00 | 0.00 | 42 | 1011.9 |
| 20260506131441 | 82 | 223 | 3.5 | 4.3 | 0.00 | 0.00 | 0.00 | 46 | 1011.9 |
| 20260506131042 | 81 | 150 | 0.9 | 7.8 | 0.00 | 0.00 | 0.00 | 47 | 1011.9 |
| 20260506130341 | 81 | 82 | 4.3 | 9.6 | 0.00 | 0.00 | 0.00 | 44 | 1012.0 |
| 20260506130042 | 81 | 53 | 3.5 | 9.6 | 0.00 | 0.00 | 0.00 | 44 | 1012.1 |
| 20260506125241 | 82 | 92 | 0.9 | 7.8 | 0.00 | 0.00 | 0.00 | 42 | 1012.1 |
| 20260506125042 | 82 | 132 | 1.7 | 7.8 | 0.00 | 0.00 | 0.00 | 43 | 1012.2 |
| 20260506124141 | 80 | 341 | 0.9 | 5.2 | 0.00 | 0.00 | 0.00 | 46 | 1012.4 |
| 20260506124041 | 80 | 227 | 2.6 | 7.8 | 0.00 | 0.00 | 0.00 | 45 | 1012.4 |
| 20260506123040 | 80 | 157 | 1.7 | 7.0 | 0.00 | 0.00 | 0.00 | 43 | 1012.5 |
| 20260506122042 | 80 | 153 | 2.6 | 7.0 | 0.00 | 0.00 | 0.00 | 46 | 1012.6 |
| 20260506121940 | 80 | 171 | 0.9 | 10.4 | 0.00 | 0.00 | 0.00 | 48 | 1012.5 |
| 20260506121041 | 80 | 147 | 2.6 | 7.8 | 0.00 | 0.00 | 0.00 | 44 | 1012.6 |
| 20260506120840 | 80 | 92 | 2.6 | 8.7 | 0.00 | 0.00 | 0.00 | 43 | 1012.7 |
| 20260506120041 | 82 | 132 | 4.3 | 8.7 | 0.00 | 0.00 | 0.00 | 42 | 1012.7 |
| 20260506115740 | 82 | 78 | 1.7 | 5.2 | 0.00 | 0.00 | 0.00 | 43 | 1012.7 |
| 20260506115042 | 82 | 227 | 0.9 | 6.1 | 0.00 | 0.00 | 0.00 | 45 | 1012.8 |
| 20260506114640 | 81 | 260 | 2.6 | 5.2 | 0.00 | 0.00 | 0.00 | 45 | 1012.9 |
| 20260506114042 | 80 | 231 | 5.2 | 5.2 | 0.00 | 0.00 | 0.00 | 47 | 1012.9 |
| 20260506113540 | 80 | 88 | 0.0 | 5.2 | 0.00 | 0.00 | 0.00 | 46 | 1012.8 |
| 20260506113041 | 80 | 129 | 0.9 | 6.1 | 0.00 | 0.00 | 0.00 | 44 | 1012.9 |
| 20260506112440 | 80 | 136 | 4.3 | 6.1 | 0.00 | 0.00 | 0.00 | 43 | 1012.9 |
| 20260506112041 | 80 | 261 | 1.7 | 2.6 | 0.00 | 0.00 | 0.00 | 47 | 1012.9 |
| 20260506111340 | 79 | 239 | 0.0 | 4.3 | 0.00 | 0.00 | 0.00 | 46 | 1013.1 |
| 20260506111041 | 79 | 234 | 3.5 | 4.3 | 0.00 | 0.00 | 0.00 | 46 | 1013.2 |
| 20260506110240 | 78 | 177 | 0.9 | 11.3 | 0.00 | 0.00 | 0.00 | 46 | 1013.3 |
| 20260506110041 | 78 | 149 | 0.9 | 11.3 | 0.00 | 0.00 | 0.00 | 47 | 1013.2 |
| 20260506105140 | 78 | 96 | 1.7 | 7.0 | 0.00 | 0.00 | 0.00 | 44 | 1013.4 |
| 20260506105041 | 78 | 111 | 0.9 | 7.8 | 0.00 | 0.00 | 0.00 | 45 | 1013.4 |
| 20260506104040 | 79 | 139 | 3.5 | 4.3 | 0.00 | 0.00 | 0.00 | 44 | 1013.5 |
| 20260506103042 | 79 | 282 | 1.7 | 4.3 | 0.00 | 0.00 | 0.00 | 44 | 1013.6 |
| 20260506102940 | 79 | 125 | 0.0 | 4.3 | 0.00 | 0.00 | 0.00 | 45 | 1013.6 |
| 20260506102042 | 79 | 225 | 2.6 | 6.1 | 0.00 | 0.00 | 0.00 | 46 | 1013.8 |
| 20260506101840 | 78 | 225 | 1.7 | 6.1 | 0.00 | 0.00 | 0.00 | 46 | 1013.8 |
| 20260506101041 | 79 | 84 | 0.9 | 7.0 | 0.00 | 0.00 | 0.00 | 47 | 1013.9 |
| 20260506100740 | 78 | 218 | 0.9 | 7.0 | 0.00 | 0.00 | 0.00 | 46 | 1013.9 |
| 20260506100041 | 78 | 248 | 1.7 | 5.2 | 0.00 | 0.00 | 0.00 | 46 | 1014.1 |
| 20260506095640 | 78 | 224 | 0.9 | 6.1 | 0.00 | 0.00 | 0.00 | 45 | 1014.1 |
| 20260506095041 | 78 | 217 | 3.5 | 6.1 | 0.00 | 0.00 | 0.00 | 47 | 1014.1 |
| 20260506094540 | 78 | 174 | 0.0 | 7.0 | 0.00 | 0.00 | 0.00 | 48 | 1014.2 |
| 20260506094041 | 78 | 196 | 2.6 | 7.8 | 0.00 | 0.00 | 0.00 | 48 | 1014.3 |
| 20260506093440 | 78 | 248 | 0.9 | 7.0 | 0.00 | 0.00 | 0.00 | 48 | 1014.3 |
| 20260506093041 | 78 | 244 | 0.9 | 6.1 | 0.00 | 0.00 | 0.00 | 46 | 1014.3 |
| 20260506092340 | 77 | 193 | 1.7 | 3.5 | 0.00 | 0.00 | 0.00 | 48 | 1014.2 |
| 20260506092042 | 77 | 223 | 2.6 | 4.3 | 0.00 | 0.00 | 0.00 | 46 | 1014.3 |
| 20260506091240 | 77 | 231 | 3.5 | 3.5 | 0.00 | 0.00 | 0.00 | 47 | 1014.4 |
| 20260506091042 | 77 | 277 | 2.6 | 3.5 | 0.00 | 0.00 | 0.00 | 47 | 1014.4 |
| 20260506090140 | 77 | 205 | 1.7 | 6.1 | 0.00 | 0.00 | 0.00 | 50 | 1014.3 |
| 20260506090041 | 77 | 228 | 1.7 | 6.1 | 0.00 | 0.00 | 0.00 | 50 | 1014.4 |
| 20260506085040 | 76 | 215 | 1.7 | 6.1 | 0.00 | 0.00 | 0.00 | 50 | 1014.3 |
| 20260506084042 | 76 | 142 | 0.9 | 5.2 | 0.00 | 0.00 | 0.00 | 50 | 1014.4 |
| 20260506083940 | 76 | 230 | 3.5 | 5.2 | 0.00 | 0.00 | 0.00 | 50 | 1014.4 |
| 20260506083041 | 75 | 214 | 1.7 | 3.5 | 0.00 | 0.00 | 0.00 | 49 | 1014.4 |
| 20260506082840 | 75 | 236 | 0.9 | 2.6 | 0.00 | 0.00 | 0.00 | 50 | 1014.4 |
| 20260506082041 | 75 | 256 | 1.7 | 3.5 | 0.00 | 0.00 | 0.00 | 52 | 1014.4 |
| 20260506081740 | 74 | 197 | 0.0 | 3.5 | 0.00 | 0.00 | 0.00 | 50 | 1014.3 |
| 20260506081041 | 74 | 225 | 0.9 | 3.5 | 0.00 | 0.00 | 0.00 | 51 | 1014.3 |
| 20260506080640 | 74 | 150 | 0.9 | 3.5 | 0.00 | 0.00 | 0.00 | 53 | 1014.3 |
| 20260506073340 | 70 | 156 | 0.0 | 2.6 | 0.00 | 0.00 | 0.00 | 59 | 1014.6 |
| 20260506073042 | 70 | 296 | 0.9 | 3.5 | 0.00 | 0.00 | 0.00 | 61 | 1014.6 |
| 20260506072240 | 69 | 192 | 0.0 | 3.5 | 0.00 | 0.00 | 0.00 | 62 | 1014.6 |
| 20260506072042 | 69 | 248 | 0.9 | 3.5 | 0.00 | 0.00 | 0.00 | 61 | 1014.6 |
| 20260506071140 | 68 | 161 | 0.0 | 2.6 | 0.00 | 0.00 | 0.00 | 63 | 1014.6 |
| 20260506071041 | 68 | 161 | 0.0 | 2.6 | 0.00 | 0.00 | 0.00 | 62 | 1014.6 |